Location: Olomouc
(49.5833°N, 17.2500°E)
Time: 20:38:14
(UTC+02:00)

ISS - Visible Passes

Search period start: 23 May 2018 00:00
Search period end: 02 June 2018 00:00
Orbit: 402 x 407 km, 51.6° (Epoch: 24 May)

Date Brightness Start Highest point End Pass type
(mag) Time Alt. Az. Time Alt. Az. Time Alt. Az.
23 May -3.3 00:38:43 10° WNW 00:41:57 58° N 00:45:11 10° E visible
23 May -4.0 02:15:16 10° WNW 02:18:32 70° SSW 02:21:47 10° ESE visible
23 May -2.2 03:52:28 10° W 03:54:34 16° SW 03:56:40 10° S visible
23 May -3.9 22:09:52 10° WSW 22:13:07 70° SSE 22:16:23 10° ENE visible
23 May -3.2 23:46:28 10° W 23:49:42 58° N 23:52:56 10° ENE visible
24 May -3.9 01:23:05 10° WNW 01:26:22 85° NNE 01:27:54 29° ESE visible
24 May -1.6 02:59:50 10° W 03:07:34 - SE 03:00:18 13° W visible
24 May -3.6 21:17:50 10° SW 21:20:59 46° SSE 21:24:09 10° ENE visible
24 May -3.4 22:54:11 10° W 22:57:27 64° N 23:00:42 10° ENE visible
25 May -3.6 00:30:52 10° WNW 00:34:08 68° N 00:35:43 27° E visible
25 May -1.7 02:07:27 10° W 02:08:18 16° W 02:08:18 16° W visible
25 May -3.7 22:01:55 10° WSW 22:05:12 78° NNW 22:08:29 10° ENE visible
25 May -3.3 23:38:37 10° WNW 23:41:53 59° N 23:44:38 13° E visible
26 May -2.8 01:15:10 10° WNW 01:17:14 34° W 01:17:14 34° W visible
26 May -3.2 22:46:21 10° W 22:49:35 57° N 22:52:49 10° E visible
27 May -4.0 00:22:56 10° WNW 00:26:13 86° SSW 00:26:24 78° SE visible
27 May -3.3 21:54:02 10° W 21:57:17 61° N 22:00:32 10° ENE visible
27 May -3.7 23:30:41 10° WNW 23:33:58 73° NNE 23:35:39 26° E visible
28 May -1.7 01:07:18 10° W 01:08:17 17° W 01:08:17 17° W visible
28 May -3.4 22:38:25 10° WNW 22:41:40 62° N 22:44:55 10° E visible
29 May -3.3 00:14:58 10° WNW 00:17:36 45° WSW 00:17:36 45° WSW visible
29 May -3.2 21:46:06 10° W 21:49:21 57° N 21:52:35 10° E visible
29 May -4.0 23:22:40 10° WNW 23:25:57 77° SSW 23:26:58 40° ESE visible
30 May -3.8 22:30:23 10° WNW 22:33:40 80° NNE 22:36:21 15° ESE visible
31 May -2.3 00:07:05 10° W 00:08:59 24° WSW 00:08:59 24° WSW visible
31 May -3.4 21:38:05 10° WNW 21:41:21 65° N 21:44:36 10° E visible
31 May -3.4 23:14:38 10° WNW 23:17:48 45° SSW 23:18:23 39° S visible
01 Jun -3.8 22:22:18 10° WNW 22:25:34 68° SSW 22:27:49 18° ESE visible
